RH
42 42 45 47 49 50 51 51 52 54 55 56 58 59 59 59 59 61 62 62 61 56 50 46 43 42 40 39 37 35 34 33 32 31 30 30 29 28 27 25 24 23 23 22 21 20 19 18 17 16 16 16
46 49 52 54 56 57 59 62 65 68 70 71 71 70 68 67 66 66 65 63 60 56 52 49 47 45 43 41 40 38 36 35 35 34 34 33 32 31 30 28 27 26 24 24 23 21 20 18 17 16 15 15
52 55 59 62 65 68 71 74 75 76 76 76 73 71 68 66 65 63 61 58 56 54 52 51 49 47 45 43 41 40 39 38 38 37 36 36 35 34 34 32 31 29 26 25 22 20 18 16 15 14 13 12
62 67 71 73 74 74 74 72 71 70 68 67 65 63 62 60 59 58 57 56 55 54 53 51 49 48 46 45 44 44 43 42 41 41 40 39 39 38 37 35 32 28 25 22 19 16 14 13 11 10 9 8
75 79 80 77 74 71 69 68 66 64 63 61 60 59 58 58 58 58 57 57 56 55 54 53 51 50 49 48 48 47 46 45 44 44 44 43 42 39 36 32 28 23 20 17 14 12 11 10 9 8 7 6
86 85 81 76 74 72 70 69 67 65 64 62 62 62 61 61 61 60 60 59 59 58 57 56 54 53 52 51 50 49 48 47 47 46 46 43 39 35 30 26 21 18 15 13 11 10 10 9 9 8 7 6
86 84 80 77 76 73 71 69 67 66 65 65 65 65 64 64 64 64 63 63 62 61 60 58 57 56 54 53 51 50 49 48 47 45 42 37 32 27 23 20 17 15 14 13 11 11 10 10 10 9 8 8
83 82 80 78 76 74 73 71 70 69 68 68 67 67 67 67 67 66 66 66 65 63 62 60 59 57 55 53 51 50 49 47 43 38 33 28 25 21 19 17 16 15 14 13 13 12 11 10 10 9 9 9
84 83 81 79 78 77 76 75 73 72 71 71 70 70 69 69 68 68 67 67 66 65 63 61 59 56 54 52 50 48 44 39 34 30 26 23 21 19 19 18 17 16 15 14 13 12 11 11 10 10 10 10
86 83 82 81 80 80 79 78 77 76 75 75 74 73 72 71 71 70 69 67 66 64 62 59 56 54 51 49 45 40 34 30 27 25 23 22 21 22 21 21 19 18 16 15 13 12 12 12 11 11 11 11
84 83 83 83 83 83 83 82 81 80 80 79 78 77 76 74 72 70 68 65 63 61 59 56 53 50 46 41 36 31 28 26 25 24 24 25 25 26 25 23 22 20 18 16 14 13 13 13 13 14 13 12
84 84 85 86 87 87 87 86 85 85 84 83 81 79 76 73 70 68 65 63 61 59 56 52 47 42 37 33 30 28 28 27 27 28 29 31 31 31 29 26 23 21 19 17 16 15 14 15 15 16 15 14
85 86 87 88 89 88 87 85 83 82 80 77 75 72 69 67 65 64 62 60 57 53 48 43 38 35 32 30 30 30 31 32 33 35 37 38 37 36 32 29 25 22 19 17 16 16 16 16 17 17 17 16
82 82 81 79 78 76 74 72 71 69 68 66 64 62 61 59 58 56 54 50 46 43 39 36 35 34 34 35 36 38 39 41 43 45 45 44 42 39 36 32 27 23 20 18 17 18 19 18 18 17 16 16
71 69 67 65 64 63 63 62 62 61 60 59 57 56 54 52 50 47 45 44 43 42 42 42 43 44 46 47 48 49 50 51 52 52 51 49 45 42 38 34 29 25 21 20 19 20 20 20 19 17 16 15
60 60 61 61 62 62 62 61 61 60 59 58 56 56 55 54 53 51 51 51 51 52 53 54 55 56 57 57 57 58 58 57 56 54 52 49 46 42 38 34 30 25 23 23 23 22 21 20 18 16 15 14
58 60 62 63 64 65 66 66 66 65 65 64 64 64 64 64 62 62 61 61 61 61 61 60 59 59 57 57 58 59 58 56 55 53 51 48 45 41 37 33 30 27 27 27 25 23 21 19 17 16 15 14
65 67 69 71 73 74 75 75 74 74 73 73 72 71 70 69 68 66 66 65 64 63 61 59 57 55 53 53 53 54 54 54 53 51 49 47 43 39 35 33 32 32 32 30 27 24 21 18 16 15 15 14
76 78 80 81 81 81 81 80 80 79 78 77 76 74 73 72 70 69 68 67 66 64 62 60 59 57 56 54 52 52 51 51 51 50 49 46 41 37 35 35 36 37 35 32 28 24 20 18 16 15 14 14
87 86 86 86 85 84 84 83 83 83 82 81 79 78 78 77 76 74 73 72 70 68 66 64 64 62 60 57 53 50 49 49 49 49 47 44 39 37 38 40 42 40 37 33 28 23 20 17 15 14 13 13
85 84 84 84 85 85 85 84 84 84 84 84 82 82 81 81 80 79 77 75 73 70 68 66 63 60 57 53 50 48 47 47 47 46 46 43 40 41 44 45 45 42 37 32 27 23 21 18 15 13 12 12
74 76 79 82 85 87 87 87 87 87 86 85 85 85 85 85 83 81 78 75 71 68 63 59 56 53 50 48 47 47 48 48 48 48 48 48 47 47 49 49 47 42 36 30 27 24 21 17 15 13 13 12
68 72 78 83 88 90 91 91 90 90 89 88 89 89 88 86 83 78 73 69 65 61 58 55 53 53 53 53 54 55 56 55 54 54 54 54 53 52 52 51 48 41 34 31 28 25 21 18 16 16 15 14
66 71 77 82 86 87 88 87 87 87 87 87 86 84 83 80 77 74 70 67 65 63 62 61 61 62 62 62 63 63 63 61 59 58 56 55 54 54 53 50 44 38 34 32 29 25 21 19 19 19 17 17
67 71 75 77 79 79 79 80 81 81 82 82 81 81 80 79 77 76 75 74 72 70 69 68 67 66 66 65 63 63 62 60 59 57 54 52 51 51 49 45 40 35 32 31 30 26 22 21 21 20 19 19
75 77 78 78 78 78 78 79 79 80 81 83 84 85 85 84 83 81 78 74 70 66 62 59 56 54 52 50 48 47 47 48 48 47 45 44 43 43 42 39 36 32 29 29 29 28 25 24 23 21 20 20
81 81 81 81 80 80 81 81 83 84 85 86 86 84 81 77 72 67 61 55 49 43 39 37 34 33 31 30 29 29 29 30 29 30 30 30 32 33 34 33 32 29 28 27 28 28 27 28 27 25 22 20
71 71 71 71 72 73 74 74 74 74 72 70 67 62 57 52 46 42 38 35 32 30 29 28 28 28 28 28 28 28 28 28 26 25 24 24 25 27 28 29 29 28 28 28 28 27 28 29 28 28 26 24
43 44 45 46 48 48 49 49 48 48 46 44 43 41 39 38 37 36 36 35 34 33 33 32 32 32 32 32 33 33 34 34 33 32 30 28 27 26 27 28 28 29 29 29 29 29 30 31 30 30 30 28
33 34 35 36 37 37 38 39 40 40 41 42 42 43 43 43 43 42 42 41 40 39 37 36 35 33 33 33 33 33 33 34 35 35 35 34 32 30 29 28 29 30 30 30 30 30 32 34 35 36 36 33
40 41 42 42 43 44 45 45 46 47 47 48 49 50 50 49 48 46 45 44 42 41 39 38 36 35 34 32 31 30 30 30 31 31 32 33 33 33 32 32 32 33 34 33 32 32 33 34 37 40 42 41
Wind_Speed
86 85 83 82 82 83 83 83 84 85 86 87 88 89 90 90 91 91 92 93 94 96 97 98 100 101 102 103 103 103 103 104 104 104 104 103 103 103 103 103 102 102 102 102 102 103 103 103 103 103 102 102
86 85 84 84 84 85 85 86 87 88 89 90 92 93 93 94 94 95 96 97 99 100 101 102 103 104 104 104 104 104 104 104 104 104 104 104 104 104 104 104 104 103 103 103 103 103 103 103 103 103 102 102
86 86 86 86 86 87 88 89 90 91 92 94 95 96 97 97 98 99 100 101 102 103 104 104 104 104 104 104 104 104 105 105 105 105 105 105 105 106 105 105 105 104 104 103 103 103 103 103 102 102 101 101
87 87 88 88 89 90 91 92 93 95 96 97 99 99 100 101 101 102 103 103 104 104 104 104 104 104 104 105 105 105 106 106 106 106 106 106 106 106 106 106 106 105 104 103 102 102 102 102 101 101 100 100
89 90 91 92 93 94 94 95 96 98 99 101 102 102 102 103 103 103 104 104 104 104 104 104 104 105 105 105 106 106 107 107 107 107 107 107 107 107 106 106 106 105 104 103 102 101 101 100 100 100 99 99
93 94 95 96 96 97 97 99 100 101 103 103 103 103 103 103 103 103 103 104 104 104 105 105 106 106 106 107 107 107 107 107 107 107 107 106 106 106 106 105 105 104 103 103 102 101 100 99 99 99 98 98
97 98 98 99 100 101 102 103 104 104 105 105 104 104 104 104 104 104 104 105 105 106 106 107 107 108 108 108 108 108 108 107 107 106 105 105 105 105 104 104 104 103 103 102 102 101 100 99 98 98 98 97
99 100 101 103 104 105 105 106 106 105 105 105 105 105 105 105 105 106 106 106 107 108 108 108 109 109 109 109 108 108 107 106 105 104 104 104 104 103 103 103 103 102 102 101 101 100 99 98 98 97 97 97
103 104 105 106 107 107 107 107 106 106 106 106 106 107 107 107 107 108 108 108 109 109 110 110 110 109 109 108 107 106 105 104 103 103 102 102 102 102 102 102 102 102 101 100 100 99 98 98 97 97 96 96
107 108 108 108 108 108 108 108 108 107 108 108 108 109 109 109 110 110 110 110 110 110 110 110 110 109 108 107 106 105 104 103 102 101 101 101 101 101 101 101 101 101 100 99 99 98 97 97 97 97 96 96
109 109 109 109 109 109 109 109 109 110 110 110 110 111 111 111 111 111 111 111 111 110 110 109 109 108 106 105 104 103 102 101 100 100 100 100 100 100 100 100 100 100 100 99 98 97 96 96 96 96 96 96
110 110 110 110 110 110 111 111 111 111 112 112 112 112 112 112 111 111 111 110 110 109 109 108 107 106 105 104 103 102 101 100 99 99 99 99 99 100 100 100 100 100 100 99 98 97 96 95 95 95 96 96
112 111 111 111 112 112 112 112 112 112 112 112 112 112 111 111 110 110 109 109 108 108 107 106 105 104 103 102 101 100 99 99 99 98 99 99 99 100 100 101 101 100 99 98 97 96 96 95 95 95 95 96
113 113 112 112 112 112 112 112 112 111 111 111 110 110 110 109 109 109 108 108 107 107 106 105 104 103 102 101 100 99 99 99 99 98 99 99 99 100 100 101 101 100 99 98 97 95 95 95 95 94 95 95
112 112 112 111 111 110 110 110 110 110 110 110 109 109 109 109 108 108 108 107 106 106 105 104 103 103 102 101 100 100 99 99 99 99 99 99 99 100 100 100 100 100 99 97 96 95 94 94 94 94 94 94
111 110 110 109 109 109 109 109 109 109 109 109 109 109 109 109 108 108 108 107 107 106 105 105 104 103 103 102 102 101 100 100 100 100 100 100 100 100 100 100 100 99 97 96 95 94 94 94 94 94 94 94
109 109 109 109 109 109 109 110 110 110 110 110 109 109 109 109 109 108 108 108 107 107 106 106 105 105 104 104 103 102 102 101 101 100 100 100 100 99 99 99 98 97 96 95 94 94 94 94 93 94 94 94
110 110 110 110 110 110 111 111 111 110 110 110 110 110 110 110 109 109 109 108 108 108 107 107 106 105 105 104 103 103 102 102 101 101 100 100 99 99 98 97 96 95 95 94 94 94 94 94 93 93 93 93
111 111 111 111 111 112 112 111 111 111 111 111 111 110 110 110 110 109 109 108 108 108 107 107 106 105 104 104 103 103 102 102 101 100 100 99 98 98 97 95 94 94 94 94 94 94 94 94 93 92 92 92
113 113 113 113 113 113 112 112 112 112 111 111 111 110 110 110 110 109 109 109 108 108 107 106 105 105 104 103 103 102 102 101 100 100 99 98 97 96 95 93 93 93 93 93 93 94 93 93 92 91 91 91
114 114 114 113 113 113 112 112 112 111 111 111 111 110 110 110 110 109 109 108 108 107 106 105 105 104 103 102 102 101 101 100 99 98 98 97 96 94 93 92 92 93 93 93 93 93 92 91 90 88 88 89
113 113 112 112 112 112 111 111 111 111 111 111 110 110 110 110 109 109 108 108 107 106 105 104 104 103 102 101 101 100 100 99 98 97 97 96 95 94 93 92 92 93 92 92 92 91 90 88 86 85 85 85
110 110 110 110 110 110 110 110 110 110 110 110 110 110 110 109 109 108 107 106 106 105 104 103 102 101 100 100 99 99 99 98 98 97 96 95 95 94 93 92 92 93 92 91 90 89 87 85 83 82 82 82
107 108 108 109 109 109 110 110 110 110 109 109 109 109 108 108 107 107 106 105 104 103 102 102 101 100 100 100 99 99 99 99 99 98 97 96 95 94 94 93 92 92 91 90 88 87 85 82 81 80 79 79
106 106 107 107 108 108 108 108 108 108 108 108 107 107 107 107 106 106 106 105 105 104 103 103 102 102 102 102 101 101 101 101 100 100 99 97 96 95 94 93 92 91 89 88 86 85 83 81 80 79 78 78
105 105 106 106 107 107 107 107 107 107 107 107 107 107 107 107 107 108 108 107 107 106 105 105 104 103 103 103 102 102 101 101 101 101 100 98 96 94 93 92 91 90 87 85 84 83 82 81 80 79 78 77
106 107 107 107 107 108 108 108 108 108 108 108 108 109 109 109 109 109 109 108 107 106 104 103 101 100 100 99 98 98 98 98 98 98 97 96 95 93 92 90 89 87 85 83 82 81 81 81 81 80 79 78
108 108 108 109 109 109 109 109 109 109 109 109 109 109 109 108 107 106 105 104 103 101 100 98 97 96 95 95 94 93 93 93 93 93 93 93 92 91 89 88 87 85 84 83 82 81 81 82 82 81 81 80
107 107 107 106 106 106 106 106 106 106 106 106 106 105 105 104 104 103 103 102 101 100 99 99 98 97 96 96 95 95 94 93 92 92 91 91 90 89 87 86 85 85 84 84 83 82 82 84 83 83 83 82
103 103 103 103 103 103 103 103 103 103 103 104 104 104 105 105 105 105 105 105 105 104 104 103 102 102 101 100 99 99 98 97 96 95 94 93 91 90 88 86 86 86 86 86 85 84 84 85 84 85 86 85
104 104 104 104 104 104 105 105 105 106 106 106 107 108 109 109 109 109 109 109 109 108 108 107 106 105 104 104 103 102 101 100 99 98 98 97 96 94 92 90 89 89 89 89 88 88 87 86 86 87 88 88
Wind_Direction
278 278 278 278 277 277 277 277 277 277 278 278 278 278 278 278 278 278 278 278 278 278 278 278 278 279 279 279 279 278 278 278 277 277 277 276 276 275 275 274 273 272 271 271 270 269 268 266 265 264 262 261
278 278 278 278 278 278 278 279 279 279 279 279 278 278 278 278 278 278 278 278 278 278 278 279 279 279 279 279 279 278 278 278 278 277 277 277 277 277 276 276 275 274 273 272 272 271 269 268 267 266 264 262
277 278 278 278 279 279 279 279 279 279 279 279 278 278 278 278 278 278 278 278 278 278 278 279 279 279 279 278 278 278 278 278 278 278 277 277 277 277 277 276 276 275 274 273 273 272 271 270 269 267 266 264
277 277 278 279 279 279 279 279 279 279 278 278 278 278 278 278 278 278 278 278 278 278 278 278 278 278 278 278 278 278 278 278 278 278 278 277 277 277 276 276 275 275 274 273 273 272 271 270 270 269 267 266
277 278 278 278 279 279 279 279 279 279 279 278 278 278 278 278 278 278 277 277 277 277 277 277 277 277 277 277 277 277 277 277 277 277 277 277 276 276 276 275 275 274 273 273 272 271 271 270 270 269 268 267
277 278 278 279 279 280 280 280 280 279 279 279 279 279 278 278 278 277 277 277 277 277 277 277 277 277 277 277 277 277 276 276 276 276 276 276 275 275 274 274 274 273 273 272 272 271 270 270 269 269 268 268
278 278 279 279 280 280 280 280 280 279 279 279 278 278 278 277 277 277 277 277 277 276 276 276 276 276 276 276 276 276 276 276 275 275 275 274 274 274 273 273 273 272 272 272 271 271 270 269 269 268 268 268
278 279 279 280 280 280 280 279 279 279 278 278 278 278 277 277 277 277 276 276 276 276 276 276 276 276 276 276 275 275 275 275 275 274 274 274 273 273 272 272 271 271 271 271 271 270 270 269 268 268 267 267
279 279 279 279 279 279 279 279 278 278 278 278 277 277 277 277 276 276 276 276 276 275 275 275 275 275 275 275 275 275 275 274 274 274 273 273 272 272 271 271 271 271 270 270 270 269 269 268 268 267 266 266
279 279 279 279 278 278 278 278 278 278 277 277 277 276 276 276 276 276 275 275 275 275 275 275 275 275 275 275 275 274 274 274 273 273 272 272 271 271 271 271 270 270 270 270 269 269 268 268 267 267 266 265
278 278 278 278 278 278 277 277 277 277 276 276 276 276 275 275 275 275 275 274 274 274 274 274 274 274 274 274 274 274 274 273 272 272 271 271 271 271 271 270 270 270 270 269 269 268 268 267 267 266 266 265
278 278 277 277 277 276 276 276 276 276 275 275 275 275 275 274 274 274 274 274 274 274 274 274 274 274 274 274 274 273 273 272 272 271 271 271 271 271 271 270 270 270 270 269 269 268 268 267 266 265 265 264
277 277 276 276 276 275 275 275 275 275 275 274 274 274 274 274 274 274 274 274 274 274 274 274 274 274 274 273 273 273 272 272 271 271 271 271 271 271 271 270 270 270 270 269 269 268 268 267 266 265 264 264
276 276 275 275 275 275 275 275 274 274 274 274 274 273 274 274 274 274 274 274 274 274 274 274 274 274 274 273 273 272 272 271 271 271 271 271 271 271 271 271 271 270 270 269 269 268 268 267 266 264 263 263
275 275 275 275 275 275 275 274 274 274 274 274 274 274 274 274 274 274 274 274 274 274 274 274 274 273 273 273 272 272 271 271 271 271 271 271 271 271 271 271 271 271 270 270 269 268 267 267 266 265 264 263
275 275 275 275 275 274 274 274 274 274 274 274 274 274 274 274 275 275 275 275 274 274 274 274 274 273 273 272 272 272 271 271 271 271 270 270 271 271 271 271 271 271 270 270 269 269 268 267 266 265 264 263
275 275 275 274 274 274 274 274 274 274 274 274 274 274 274 275 275 275 275 275 274 274 274 274 273 273 273 272 272 272 271 271 271 270 270 270 271 271 271 271 271 271 270 270 269 269 268 267 266 265 265 263
275 275 275 274 274 274 274 274 274 274 274 274 274 275 275 275 275 275 275 275 275 274 274 274 274 273 273 273 272 272 271 271 271 271 270 270 270 270 270 271 271 270 270 270 270 269 268 267 266 265 265 264
276 275 275 275 274 274 274 274 274 274 274 275 275 275 275 275 275 275 275 275 275 275 274 274 274 273 273 273 272 272 272 271 271 271 270 270 270 270 270 270 271 271 271 271 270 270 269 268 266 265 265 263
276 275 275 275 275 275 275 275 275 275 275 275 275 275 275 275 275 275 275 275 275 274 274 274 274 273 273 272 272 272 272 271 271 270 270 270 270 270 270 270 271 271 271 271 271 270 269 268 267 266 265 263
275 275 275 275 275 274 275 275 275 275 275 275 275 275 275 275 275 275 275 274 274 274 274 273 273 273 272 272 272 271 271 271 270 270 270 270 270 270 270 271 271 271 271 271 271 270 269 268 267 266 264 263
274 274 274 274 274 274 274 274 274 274 275 275 275 275 275 274 274 274 274 274 273 273 273 272 272 272 272 271 271 271 271 270 270 270 269 270 270 270 271 271 271 271 271 270 270 269 268 267 266 265 264 262
274 274 274 274 274 274 274 274 274 274 274 274 274 274 274 274 274 273 273 273 273 272 272 272 272 272 271 271 271 270 270 270 270 270 270 270 270 270 271 271 271 271 270 269 269 268 267 266 265 264 263 262
274 274 274 273 273 273 274 274 274 274 274 274 274 273 273 273 273 273 273 273 272 272 272 272 272 271 271 271 270 270 270 270 270 270 270 270 270 270 270 270 270 270 269 268 267 266 265 264 263 263 262 261
274 274 274 274 273 273 273 273 273 273 273 273 273 273 273 273 273 273 273 272 272 272 272 272 271 271 271 271 271 270 270 270 270 270 270 270 269 270 269 269 269 268 267 266 266 264 263 262 262 262 262 261
274 274 274 273 273 273 273 273 273 273 273 273 273 273 273 273 273 273 272 272 272 272 271 271 271 271 271 271 271 271 271 271 270 270 270 270 269 269 269 268 268 267 265 264 263 262 261 262 262 262 261 260
274 273 273 273 273 273 273 274 274 274 273 273 273 273 273 273 272 272 272 272 272 271 271 271 271 271 271 271 271 270 271 270 270 270 270 269 268 268 267 267 266 265 264 263 261 260 259 260 261 261 261 260
273 273 273 273 274 274 274 274 274 273 273 273 273 273 273 272 272 272 272 271 271 271 271 271 270 270 270 270 270 270 270 270 270 270 269 269 268 267 266 265 265 264 263 261 260 259 259 259 259 260 260 260
274 274 274 274 274 274 274 274 273 273 273 273 273 272 272 272 272 272 271 271 271 271 270 270 270 269 269 269 269 269 269 269 269 269 268 268 267 266 265 264 263 262 261 260 260 259 258 259 259 260 260 259
275 275 275 275 274 274 274 274 274 273 273 273 273 273 272 272 272 272 272 271 271 271 271 270 270 269 269 269 268 268 268 268 267 267 267 266 266 265 264 262 262 261 261 260 259 258 258 258 258 259 259 259
275 275 275 275 274 274 274 274 274 273 273 273 273 273 273 272 272 272 272 272 271 271 271 271 271 270 270 269 269 268 268 267 267 266 266 265 265 263 262 261 260 260 260 259 259 258 257 256 256 257 258 259